SCP
-0 -0 -0 0 0 0 0 0 0 0 0 0 0 0 0 0 0 0 0 0 0 0 0 0 0 0 0 0 0 0 0 0 0 0 0 0 0 0 0 0 0 0 0
-0 -0 -0 0 0 0 0 0 0 0 0 0 0 0 0 0 0 0 0 0 0 0 0 0 0 0 0 0 0 0 0 0 0 0 0 0 0 0 0 0 0 0 0
0 0 0 0 0 0 0 0 0 0 0 0 0 0 0 0 0 0 0 0 0 0 0 0 0 0 0 0 0 0 0 0 0 0 0 0 0 0 0 0 0 0 0
0 0 0 0 0 0 0 0 0 0 0 0 0 0 0 0 0 0 0 0 0 0 0 0 0 0 0 0 0 0 0 0 0 0 0 0 0 0 0 0 0 0 0
0 0 0 0 0 0 0 0 0 0 0 0 0 0 0 0 0 0 0 0 0 0 0 0 0 0 0 0 0 0 0 0 0 0 0 -0 0 0 0 0 0 0 0
0 0 0 0 0 0 0 0 0 0 0 0 0 0 0 0 0 0 0 0 0 0 0 0 0 0 0 0 0 0 0 0 0 0 0 0 0 0 0 0 0 0 0
0 0 0 0 0 0 0 0 0 0 0 0 0 0 0 0 0 0 0 0 0 0 0 0 0 0 0 0 0 0 0 0 0 0 0 0 0 0 0 0 0 0 0
0 0 0 0 0 0 0 0 0 0 0 0 0 0 0 0 0 0 0 0 0 0 0 0 0 0 0 0 0 0 0 0 0 0 0 0 0 0 0 0 0 0 0
0 0 0 0 0 0 0 0 0 0 0 0 0 0 0 0 0 0 0 0 0 0 0 0 0 0 0 0 0 0 0 0 0 0 0 0 0 0 0 0 0 0 0
0 0 0 0 0 0 0 0 0 0 0 0 0 0 0 0 0 0 0 0 0 0 0 0 0 0 0 0 0 0 0 0 0 0 0 0 0 0 0 0 0 0 0
0 0 0 0 0 0 0 0 0 0 0 0 0 0 0 0 0 0 0 0 0 0 0 0 0 0 0 0 0 0 0 0 0 0 0 0 0 0 0 0 0 0 0
0 0 0 0 0 0 0 0 0 0 0 0 0 0 0 0 0 0 0 0 0 0 0 0 0 0 0 0 0 0 0 0 0 0 0 0 0 0 0 0 0 0 0
0 0 0 0 0 0 0 0 0 0 0 0 0 0 0 0 0 0 0 0 0 0 0 0 0 0 0 0 0 0 0 0 0 0 0 0 0 0 0 0 0 0 0
0 0 0 0 0 0 0 0 0 0 0 0 0 0 0 0 0 0 0 0 0 0 0 0 0 0 0 0 0 0 0 0 0 0 0 0 0 0 0 0 0 0 0
0 0 0 0 0 0 0 0 0 0 0 0 0 0 0 0 0 0 0 0 0 0 0 0 0 0 0 0 0 0 0 0 0 0 0 0 0 0 0 0 0 0 0
0 0 0 0 0 0 0 0 0 0 0 0 0 0 0 0 0 0 0 0 0 0 0 0 0 0 0 0 0 0 0 0 0 0 0 0 0 0 0 0 0 0 0
0 0 0 0 0 0 0 0 0 0 0 0 0 0 0 0 0 0 0 0 0 0 0 0 0 0 0 0 0 0 0 0 0 0 0 0 0 0 0 0 0 0 0
0 0 0 0 0 0 0 0 0 0 0 0 0 0 0 0 0 0 0 0 0 0 0 0 0 0 0 0 0 0 0 0 0 0 0 0 0 0 0 0 0 0 0
0 0 0 0 0 0 0 0 0 0 0 0 0 0 0 0 0 0 0 0 0 0 0 0 0 0 0 0 0 0 0 0 0 0 0 0 0 0 0 0 0 0 0
0 0 0 0 0 0 0 0 0 0 0 0 0 0 0 0 0 0 0 0 0 0 0 0 0 0 0 0 0 0 0 0 0 0 0 0 0 0 0 0 0 0 0
0 0 0 0 0 0 0 0 0 0 0 0 0 0 0 0 0 0 0 0 0 0 0 0 0 0 0 0 0 0 0 0 0 0 0 0 0 0 0 0 0 0 0
0 0 0 0 0 0 0 0 0 0 0 0 0 0 0 0 0 0 0 0 0 0 0 0 0 0 0 0 0 0 0 0 0 0 0 0 0 0 0 0 0 0 0
0 0 0 0 0 0 0 0 0 0 0 0 0 0 0 0 0 0 0 0 0 0 0 0 0 0 0 0 0 0 0 0 0 0 0 0 0 0 0 0 0 0 0
0 0 0 0 0 0 0 0 0 0 0 0 0 0 0 0 0 0 0 0 0 0 0 0 0 0 0 0 0 0 0 0 0 0 0 0 0 0 0 0 0 0 0
0 0 0 0 0 0 0 0 0 0 0 0 0 0 0 0 0 0 0 0 0 0 0 0 0 0 0 0 0 0 0 0 0 0 0 0 0 0 0 0 0 0 0
0 0 0 0 0 0 0 0 0 0 0 0 0 0 0 0 0 0 0 0 0 0 0 0 0 0 0 0 0 0 0 0 0 0 0 0 0 0 0 0 0 0 0
Wind_Speed
3 4 8 9 10 11 12 13 14 14 15 15 16 16 16 16 16 16 15 15 15 16 16 17 17 17 17 17 18 19 20 20 20 20 20 21 21 21 21 20 17 13 21
5 5 9 9 11 12 12 13 13 14 15 15 15 15 15 15 15 15 15 15 15 15 16 16 16 16 17 18 19 19 19 19 19 19 18 17 19 20 21 20 20 14 21
6 6 8 10 11 12 12 12 13 14 14 15 15 15 15 15 15 15 15 15 15 15 16 16 16 17 17 18 19 19 19 18 18 18 16 8 11 19 20 20 20 21 21
7 6 6 10 11 12 12 12 12 13 14 14 14 14 14 15 15 15 15 15 15 16 16 17 17 18 18 19 19 19 19 19 18 16 9 7 8 18 19 20 20 21 21
6 6 7 10 11 12 12 12 12 13 13 13 14 14 14 14 14 15 15 15 16 16 17 17 17 18 18 18 18 19 19 18 18 13 7 7 7 17 20 20 20 20 20
6 5 7 10 11 12 12 12 12 13 13 13 13 13 13 13 14 14 15 15 16 16 17 17 17 18 18 18 19 19 19 18 14 8 8 7 7 17 20 20 19 19 20
6 5 5 9 9 10 11 12 12 12 13 13 13 13 12 12 13 13 14 15 16 16 17 17 18 18 19 19 19 19 18 18 11 9 8 7 10 19 20 20 20 19 20
5 4 4 7 8 9 9 10 11 12 12 12 13 12 12 12 12 13 14 15 16 16 17 18 18 19 19 20 20 20 20 17 12 10 8 7 15 19 20 20 20 20 20
4 4 3 3 4 7 8 8 9 10 11 11 12 11 10 10 11 11 12 14 15 16 17 18 18 19 20 20 21 21 21 21 11 8 8 8 17 21 21 21 21 21 21
4 3 3 2 2 3 4 7 9 10 11 11 11 10 10 9 9 9 9 12 14 15 16 17 18 19 20 20 20 20 20 16 9 8 6 10 20 22 22 22 22 22 22
2 2 2 2 1 2 2 4 6 8 9 10 9 11 9 5 5 6 8 11 13 14 16 17 18 19 18 19 20 20 15 7 8 7 7 17 21 22 23 23 23 23 23
4 1 1 1 1 1 2 3 3 3 4 5 5 7 5 5 4 6 9 11 12 13 15 17 18 16 13 8 12 14 7 9 8 7 11 22 23 23 23 23 23 23 24
3 2 0 0 0 1 1 2 2 2 3 4 6 6 5 5 4 4 4 5 7 8 7 9 10 7 7 7 7 7 8 8 7 7 12 22 24 24 24 24 24 24 24
4 3 1 1 1 1 2 2 3 3 3 3 4 6 6 4 4 4 3 3 4 4 5 5 5 7 9 9 10 10 10 7 7 6 12 22 24 24 24 25 25 25 25
5 4 2 1 2 2 2 2 2 3 3 4 4 5 6 6 5 5 4 4 4 4 5 5 6 8 9 9 10 11 11 10 9 8 8 21 24 24 25 25 25 25 26
6 5 3 2 3 3 3 3 3 3 3 3 3 5 6 6 6 6 6 5 5 5 5 6 7 8 8 9 11 11 10 9 10 9 8 12 22 24 24 25 25 25 25
6 4 4 3 3 4 4 4 3 3 3 3 3 5 6 6 7 7 6 5 5 6 7 7 8 8 9 9 11 10 9 9 9 10 9 8 9 18 23 24 25 25 25
6 5 4 3 4 4 5 5 4 3 3 3 3 4 6 7 8 7 6 6 6 6 6 7 7 9 8 8 8 7 7 7 9 9 9 8 7 8 14 23 24 24 25
7 6 6 5 5 5 6 5 5 4 4 3 3 4 6 8 8 8 7 6 7 6 6 7 6 7 9 9 8 7 6 6 6 8 9 9 8 8 7 15 21 23 24
7 7 7 6 7 7 6 5 5 5 4 3 3 4 6 7 8 9 7 8 7 7 7 8 10 7 7 8 10 8 5 5 5 6 7 6 7 8 8 9 9 13 22
8 8 9 9 9 8 5 4 5 4 3 3 3 5 6 7 8 8 8 8 7 8 9 10 11 10 6 5 6 5 4 4 5 5 4 5 7 6 7 8 7 7 8
12 11 11 11 11 10 5 3 3 4 4 3 3 4 5 6 7 8 9 8 7 9 10 10 10 6 3 1 4 4 3 1 3 4 4 5 5 5 6 8 7 8 6
15 15 13 13 11 10 8 6 6 5 4 3 3 3 3 5 6 7 8 8 8 8 9 8 8 9 6 2 2 4 5 4 1 2 3 3 4 4 4 4 6 7 8
17 13 12 13 12 11 11 10 10 8 6 5 4 4 4 5 6 7 8 8 7 6 8 7 5 5 7 5 3 3 3 4 5 2 1 2 3 3 3 3 4 4 6
12 12 12 12 12 12 12 12 10 7 6 6 6 7 6 4 5 6 7 8 7 6 7 7 6 6 4 5 4 3 4 4 3 4 2 2 2 1 2 2 2 2 4
11 12 13 14 13 13 13 12 11 12 12 12 11 9 6 4 4 5 6 7 7 7 7 7 7 8 6 6 5 4 4 4 3 3 3 1 2 2 1 0 1 1 2
Wind_Direction
182 179 164 146 136 127 118 111 104 98 93 89 84 79 75 72 70 68 68 68 69 69 69 68 67 67 68 71 72 71 66 63 59 56 55 56 55 53 50 47 45 39 45
158 158 150 139 133 128 121 116 110 104 98 93 88 83 78 74 72 70 69 69 70 71 71 70 70 70 74 76 76 74 70 66 62 59 55 52 56 55 53 49 47 44 43
142 142 139 133 130 128 123 119 114 109 103 98 93 87 81 77 74 71 70 70 70 71 72 72 73 75 79 79 78 76 72 68 64 59 52 37 49 57 55 52 49 46 44
138 133 133 132 131 130 127 124 119 113 108 103 97 91 85 79 75 72 71 70 71 72 74 75 76 79 81 80 78 76 72 68 63 58 45 34 42 57 56 54 51 47 44
126 127 136 136 136 134 131 127 124 119 115 110 104 97 90 83 78 75 73 72 72 74 76 77 78 81 81 79 78 75 72 68 61 49 35 33 40 58 57 55 52 48 45
124 127 141 142 142 140 138 135 132 129 124 119 112 105 97 89 83 78 76 75 75 76 77 78 79 81 80 77 75 73 70 64 53 39 32 31 44 56 56 55 53 50 47
131 133 145 144 144 146 147 144 141 139 134 128 122 115 106 98 90 84 81 79 78 78 79 79 79 79 76 73 71 68 65 61 52 39 30 28 50 56 55 54 52 50 48
133 134 139 147 147 149 151 151 149 147 143 139 133 127 119 109 99 91 86 83 81 80 79 79 79 78 76 73 70 67 63 59 49 37 29 30 51 55 54 53 51 49 48
104 114 114 128 147 156 157 156 157 154 151 147 143 136 127 116 105 95 90 87 84 81 80 79 79 78 76 74 71 68 64 58 47 37 33 39 52 54 53 51 49 48 47
87 93 95 99 119 145 162 168 164 162 159 155 148 142 136 125 111 99 91 90 87 84 82 81 80 79 77 75 72 69 64 55 42 35 32 48 54 54 53 51 49 47 45
104 81 77 87 103 133 157 169 166 162 162 157 151 147 139 126 116 102 97 92 88 86 85 84 83 81 78 75 74 70 63 51 44 39 39 54 56 56 54 52 50 48 46
178 154 69 71 96 147 149 145 147 150 154 151 149 150 140 131 121 112 99 91 84 81 83 84 84 80 77 69 68 68 61 53 50 42 46 53 56 56 55 53 51 49 47
183 184 159 21 289 176 155 150 146 143 146 150 153 153 141 130 123 112 103 93 84 78 75 78 76 71 74 74 72 68 63 60 53 48 46 52 54 54 54 53 51 50 49
191 207 210 283 251 209 169 161 154 150 152 156 160 158 150 143 134 127 113 104 95 92 90 82 83 79 77 76 76 73 66 64 55 50 50 52 53 53 53 52 51 50 49
204 211 216 244 233 207 167 158 153 155 156 155 155 160 156 150 144 131 118 107 102 101 100 97 93 88 84 80 78 77 73 67 61 53 45 50 52 51 51 51 49 49 48
208 209 212 227 220 196 169 154 149 143 143 144 149 156 153 149 144 136 126 116 106 104 101 99 99 94 87 86 82 78 75 69 63 60 51 44 48 50 49 49 48 47 46
202 202 206 212 199 181 160 146 138 137 137 138 140 143 143 142 140 136 129 120 113 111 107 102 96 93 92 89 84 78 75 70 65 59 54 48 39 44 48 48 46 44 43
193 195 201 191 174 165 148 136 129 125 126 126 129 131 134 135 136 132 128 123 120 114 112 109 107 102 96 93 87 78 71 68 64 60 57 51 46 40 40 47 45 43 41
192 189 188 176 164 148 131 120 113 111 108 113 119 125 130 132 134 130 126 125 122 113 110 114 108 112 110 103 94 79 65 60 56 60 59 53 50 47 40 43 44 41 38
190 188 182 169 159 143 128 117 107 97 89 90 104 119 126 128 130 126 124 126 124 118 114 116 112 103 110 113 102 84 66 61 56 53 54 52 51 51 47 48 40 34 34
190 188 185 175 168 159 151 150 141 127 110 94 91 106 121 129 131 130 129 129 129 126 129 128 121 111 105 116 105 92 59 55 60 50 47 55 51 47 50 50 47 41 27
194 192 189 184 178 177 166 140 126 121 109 92 90 91 106 124 131 134 135 134 131 127 128 134 131 120 108 69 127 125 116 34 28 37 39 53 50 44 52 54 51 45 36
199 195 192 187 181 177 158 135 116 105 102 107 110 101 93 114 123 130 134 133 135 137 143 147 146 137 137 76 62 142 147 173 157 358 25 43 45 49 46 54 56 47 38
203 191 188 183 180 175 166 167 165 163 160 163 148 133 114 110 121 127 130 130 131 133 139 143 139 131 133 135 92 53 91 134 139 135 333 14 47 57 48 56 57 51 40
191 185 185 180 181 176 176 179 179 162 138 135 132 131 122 113 118 127 131 129 130 131 132 130 128 127 126 137 137 130 94 70 83 130 157 325 354 28 52 74 76 58 39
181 182 182 183 184 179 179 182 184 164 151 150 152 149 141 133 124 131 130 129 130 130 131 131 127 123 120 120 122 129 136 135 135 127 141 202 297 303 333 93 98 67 41